Deer Park, WA

3:38 PM PST on January 23, 2017 (GMT -0800)
Deer Park

Weather History for KDEW - January, 2013

Change the Weather History Date:

Thursday, January 3, 2013

  Actual Average Record
Temperature  
Mean Temperature 13 °F 25 °F  
Max Temperature 28 °F 32 °F 41 °F (2012)
Min Temperature -2 °F 19 °F -20 °F (2009)
Degree Days  
Heating Degree Days 52 40  
Month to date heating degree days 152 120  
Since 1 July heating degree days 2945 3347  
Cooling Degree Days 0 0  
Month to date cooling degree days 0 0  
Year to date cooling degree days 0 0  
Moisture  
Dew Point 7 °F    
Average Humidity 84    
Maximum Humidity 100    
Minimum Humidity 68    
Precipitation  
Precipitation 0.00 in 0.10 in 0.39 in (2000)
Month to date precipitation 0.00 0.32  
Year to date precipitation 0.00 0.32  
Sea Level Pressure  
Sea Level Pressure 30.47 in    
Wind  
Wind Speed 3 mph (North)    
Max Wind Speed 9 mph    
Max Gust Speed 12 mph    
Visibility 10 miles    
Events      
T = Trace of Precipitation, MM = Missing Value Source: NWS Daily Summary

Daily Weather History Graph

Daily Weather History Graph

Search for Another Location

Airport or City:

Trip Planner

Search our weather history database for the weather conditions in past years. The results will help you decide how hot, cold, wet, or windy it might be!

Date:

Astronomy

Jan. 03, 2013 Rise Set
Actual Time 7:39 AM PST 4:09 PM PST
Civil Twilight 7:03 AM PST 4:45 PM PST
Nautical Twilight 6:23 AM PST 5:25 PM PST
Astronomical Twilight 5:46 AM PST 6:02 PM PST
Moon 11:23 PM PST (1/3) 10:22 AM PST (1/3)
Length of Visible Light 9h 42m
Length of Day
8h 30m
Waning Gibbous, 64% of the Moon is Illuminated
Jan 3
Waning Gibbous
Jan 4
Last Quarter
Jan 11
New
Jan 18
First Quarter
Jan 26
Full

Hourly Weather History & Observations

Time (PST) Temp. Windchill Dew Point Humidity Pressure Visibility Wind Dir Wind Speed Gust Speed Precip Events Conditions
12:53 AM 7.0 °F -4.5 °F 5.0 °F 92% 30.52 in 10.0 mi NNW 6.9 mph - N/A   Clear
1:53 AM 9.0 °F - 5.0 °F 84% 30.51 in 10.0 mi Calm Calm - N/A   Clear
2:53 AM 3.9 °F -5.3 °F -0.0 °F 84% 30.52 in 10.0 mi NNW 4.6 mph - N/A   Clear
3:53 AM 3.0 °F -4.4 °F 1.0 °F 91% 30.51 in 10.0 mi NW 3.5 mph - N/A   Clear
4:53 AM 3.0 °F -6.4 °F -0.0 °F 87% 30.51 in 10.0 mi NW 4.6 mph - N/A   Clear
5:53 AM 1.0 °F - -2.9 °F 83% 30.51 in 10.0 mi Calm Calm - N/A   Clear
6:53 AM 1.0 °F - -0.9 °F 91% 30.51 in 10.0 mi Calm Calm - N/A   Clear
7:53 AM 1.9 °F -5.6 °F -0.9 °F 88% 30.52 in 10.0 mi West 3.5 mph - N/A   Clear
8:53 AM 5.0 °F -2.1 °F 1.9 °F 87% 30.52 in 10.0 mi WNW 3.5 mph - N/A   Clear
9:53 AM 12.0 °F - 10.0 °F 92% 30.51 in 10.0 mi Calm Calm - N/A   Clear
10:53 AM 19.9 °F 12.1 °F 16.0 °F 85% 30.48 in 10.0 mi NNE 5.8 mph - N/A   Clear
11:53 AM 25.0 °F 20.7 °F 17.1 °F 72% 30.45 in 10.0 mi NE 3.5 mph - N/A   Clear
12:53 PM 26.1 °F 19.4 °F 17.1 °F 69% 30.43 in 10.0 mi NE 5.8 mph - N/A   Clear
1:53 PM 27.0 °F 18.0 °F 17.1 °F 66% 30.40 in 10.0 mi NE 9.2 mph - N/A   Clear
2:53 PM 25.0 °F 17.1 °F 16.0 °F 69% 30.40 in 10.0 mi North 6.9 mph - N/A   Clear
3:53 PM 23.0 °F 17.0 °F 16.0 °F 74% 30.40 in 10.0 mi North 4.6 mph - N/A   Clear
4:53 PM 15.1 °F 9.4 °F 12.9 °F 91% 30.43 in 10.0 mi NW 3.5 mph - N/A   Clear
5:53 PM 9.0 °F - 8.1 °F 96% 30.43 in 10.0 mi Calm Calm - N/A   Clear
6:53 PM 12.0 °F 1.5 °F 10.0 °F 92% 30.45 in 10.0 mi WSW 6.9 mph - N/A   Clear
7:53 PM 8.1 °F 1.4 °F 6.1 °F 92% 30.44 in 10.0 mi ENE 3.5 mph - N/A   Clear
8:53 PM 7.0 °F - 3.9 °F 87% 30.44 in 10.0 mi Calm Calm - N/A   Clear
9:53 PM 9.0 °F - 7.0 °F 92% 30.44 in 10.0 mi Calm Calm - N/A   Clear
10:53 PM 3.9 °F - 1.0 °F 88% 30.46 in 10.0 mi Calm Calm - N/A   Partly Cloudy
11:53 PM 9.0 °F - 7.0 °F 92% 30.44 in 10.0 mi Calm Calm - N/A   Overcast